C/2016 A8 ( LINEAR )

Japanese version
Home page
Updated on March 25, 2017

---------------------------------------------------------------------

* Profile

Discovery Date January 14, 2016
Magnitude 20.1 mag
Discoverer LINEAR survey (Space Surveillance Telescope, Atom Peak, White Sands Missile Range, NM, USA)

* Pictures

* Orbital Elements

Epoch 2016 Sept. 9.0 TT = JDT 2457640.5
T 2016 Aug. 30.66922 TT                                 MPCW
q   1.8811302            (2000.0)            P               Q
z  +0.0285261      Peri.  130.26545     +0.83864263     -0.23574142
 +/-0.0000000      Node   111.23262     -0.49712437     -0.69967801
e   0.9463387      Incl.  148.21164     +0.22258907     -0.67444545
From 1289 observations 2016 Jan. 14-Nov. 3, mean residual 0".5.

* Finding Charts

* Magnitudes Graph

        m1 = 6.5 + 5 log d + 21.0 log r

---------------------------------------------------------------------

The orbital elements are published on M.P.E.C. 2017-E59.
The charts are made with StellaNavigator Ver.10 (AstroArts).
The magnitudes graphs are made with Comet for Windows.

---------------------------------------------------------------------

Copyright(C) Seiichi Yoshida (comet@aerith.net). All rights reserved.